#datetime,building,power
2022-10-02T00:00:00,mcc,52.39
2022-10-02T00:01:00,mcc,50.81
2022-10-02T00:02:00,mcc,53.26
2022-10-02T00:03:00,mcc,53.12
2022-10-02T00:04:00,mcc,52.99
2022-10-02T00:05:00,mcc,55.57
2022-10-02T00:06:00,mcc,51.41
2022-10-02T00:07:00,mcc,49.44
2022-10-02T00:08:00,mcc,51.30
2022-10-02T00:09:00,mcc,48.68
2022-10-02T00:10:00,mcc,48.59
2022-10-02T00:11:00,mcc,58.44
2022-10-02T00:12:00,mcc,49.41
2022-10-02T00:13:00,mcc,50.14
2022-10-02T00:14:00,mcc,52.47
2022-10-02T00:15:00,mcc,51.03
2022-10-02T00:16:00,mcc,49.33
2022-10-02T00:17:00,mcc,51.54
2022-10-02T00:18:00,mcc,52.27
2022-10-02T00:19:00,mcc,49.61
2022-10-02T00:20:00,mcc,50.59
2022-10-02T00:21:00,mcc,47.11
2022-10-02T00:22:00,mcc,46.53
2022-10-02T00:23:00,mcc,46.70
2022-10-02T00:24:00,mcc,45.38
2022-10-02T00:25:00,mcc,44.38
2022-10-02T00:26:00,mcc,44.93
2022-10-02T00:27:00,mcc,45.21
2022-10-02T00:28:00,mcc,43.82
2022-10-02T00:29:00,mcc,44.59
2022-10-02T00:30:00,mcc,45.69
2022-10-02T00:31:00,mcc,53.79
2022-10-02T00:32:00,mcc,47.02
2022-10-02T00:33:00,mcc,44.68
2022-10-02T00:34:00,mcc,44.23
2022-10-02T00:35:00,mcc,44.32
2022-10-02T00:36:00,mcc,43.15
2022-10-02T00:37:00,mcc,42.83
2022-10-02T00:38:00,mcc,39.46
2022-10-02T00:39:00,mcc,38.10
2022-10-02T00:40:00,mcc,38.73
2022-10-02T00:41:00,mcc,38.98
2022-10-02T00:42:00,mcc,38.62
2022-10-02T00:43:00,mcc,41.01
2022-10-02T00:44:00,mcc,42.71
2022-10-02T00:45:00,mcc,40.40
2022-10-02T00:46:00,mcc,41.64
2022-10-02T00:47:00,mcc,41.25
2022-10-02T00:48:00,mcc,42.05
2022-10-02T00:49:00,mcc,43.32
2022-10-02T00:50:00,mcc,43.41
2022-10-02T00:51:00,mcc,48.46
2022-10-02T00:52:00,mcc,39.26
2022-10-02T00:53:00,mcc,36.54
2022-10-02T00:54:00,mcc,36.80
2022-10-02T00:55:00,mcc,37.30
2022-10-02T00:56:00,mcc,38.43
2022-10-02T00:57:00,mcc,39.10
2022-10-02T00:58:00,mcc,38.57
2022-10-02T00:59:00,mcc,38.04
2022-10-02T01:00:00,mcc,38.21
2022-10-02T01:01:00,mcc,41.73
2022-10-02T01:02:00,mcc,40.48
2022-10-02T01:03:00,mcc,40.54
2022-10-02T01:04:00,mcc,39.85
2022-10-02T01:05:00,mcc,43.25
2022-10-02T01:06:00,mcc,40.80
2022-10-02T01:07:00,mcc,39.88
2022-10-02T01:08:00,mcc,43.22
2022-10-02T01:09:00,mcc,40.05
2022-10-02T01:10:00,mcc,39.22
2022-10-02T01:11:00,mcc,42.45
2022-10-02T01:12:00,mcc,43.40
2022-10-02T01:13:00,mcc,40.88
2022-10-02T01:14:00,mcc,39.58
2022-10-02T01:15:00,mcc,39.07
2022-10-02T01:16:00,mcc,42.77
2022-10-02T01:17:00,mcc,42.00
2022-10-02T01:18:00,mcc,41.51
2022-10-02T01:19:00,mcc,40.41
2022-10-02T01:20:00,mcc,38.62
2022-10-02T01:21:00,mcc,38.87
2022-10-02T01:22:00,mcc,38.87
2022-10-02T01:23:00,mcc,41.84
2022-10-02T01:24:00,mcc,37.12
2022-10-02T01:25:00,mcc,38.18
2022-10-02T01:26:00,mcc,40.10
2022-10-02T01:27:00,mcc,39.16
2022-10-02T01:28:00,mcc,40.87
2022-10-02T01:29:00,mcc,42.59
2022-10-02T01:30:00,mcc,40.78
2022-10-02T01:31:00,mcc,46.75
2022-10-02T01:32:00,mcc,48.75
2022-10-02T01:33:00,mcc,38.71
2022-10-02T01:34:00,mcc,40.04
2022-10-02T01:35:00,mcc,44.82
2022-10-02T01:36:00,mcc,42.40
2022-10-02T01:37:00,mcc,42.41
2022-10-02T01:38:00,mcc,43.83
2022-10-02T01:39:00,mcc,44.13
2022-10-02T01:40:00,mcc,43.21
2022-10-02T01:41:00,mcc,45.50
2022-10-02T01:42:00,mcc,43.09
2022-10-02T01:43:00,mcc,42.82
2022-10-02T01:44:00,mcc,43.00
2022-10-02T01:45:00,mcc,42.97
2022-10-02T01:46:00,mcc,43.78
2022-10-02T01:47:00,mcc,44.48
2022-10-02T01:48:00,mcc,43.51
2022-10-02T01:49:00,mcc,45.06
2022-10-02T01:50:00,mcc,42.79
2022-10-02T01:51:00,mcc,48.12
2022-10-02T01:52:00,mcc,48.03
2022-10-02T01:53:00,mcc,46.65
2022-10-02T01:54:00,mcc,50.75
2022-10-02T01:55:00,mcc,47.16
2022-10-02T01:56:00,mcc,48.58
2022-10-02T01:57:00,mcc,46.05
2022-10-02T01:58:00,mcc,46.10
2022-10-02T01:59:00,mcc,48.93
2022-10-02T02:00:00,mcc,46.59
2022-10-02T02:01:00,mcc,49.17
2022-10-02T02:02:00,mcc,48.05
2022-10-02T02:03:00,mcc,46.71
2022-10-02T02:04:00,mcc,48.89
2022-10-02T02:05:00,mcc,50.94
2022-10-02T02:06:00,mcc,48.75
2022-10-02T02:07:00,mcc,47.88
2022-10-02T02:08:00,mcc,53.05
2022-10-02T02:09:00,mcc,48.20
2022-10-02T02:10:00,mcc,47.71
2022-10-02T02:11:00,mcc,50.51
2022-10-02T02:12:00,mcc,48.90
2022-10-02T02:13:00,mcc,48.31
2022-10-02T02:14:00,mcc,50.72
2022-10-02T02:15:00,mcc,63.12
2022-10-02T02:16:00,mcc,49.65
2022-10-02T02:17:00,mcc,59.29
2022-10-02T02:18:00,mcc,56.45
2022-10-02T02:19:00,mcc,53.83
2022-10-02T02:20:00,mcc,55.69
2022-10-02T02:21:00,mcc,57.55
2022-10-02T02:22:00,mcc,56.14
2022-10-02T02:23:00,mcc,59.12
2022-10-02T02:24:00,mcc,47.92
2022-10-02T02:25:00,mcc,50.00
2022-10-02T02:26:00,mcc,48.88
2022-10-02T02:27:00,mcc,45.58
2022-10-02T02:28:00,mcc,46.72
2022-10-02T02:29:00,mcc,55.13
2022-10-02T02:30:00,mcc,45.13
2022-10-02T02:31:00,mcc,46.05
2022-10-02T02:32:00,mcc,50.52
2022-10-02T02:33:00,mcc,49.37
2022-10-02T02:34:00,mcc,49.42
2022-10-02T02:35:00,mcc,52.29
2022-10-02T02:36:00,mcc,49.68
2022-10-02T02:37:00,mcc,48.62
2022-10-02T02:38:00,mcc,52.79
2022-10-02T02:39:00,mcc,50.95
2022-10-02T02:40:00,mcc,53.69
2022-10-02T02:41:00,mcc,53.66
2022-10-02T02:42:00,mcc,50.75
2022-10-02T02:43:00,mcc,51.49
2022-10-02T02:44:00,mcc,51.61
2022-10-02T02:45:00,mcc,50.44
2022-10-02T02:46:00,mcc,50.45
2022-10-02T02:47:00,mcc,46.47
2022-10-02T02:48:00,mcc,57.38
2022-10-02T02:49:00,mcc,49.31
2022-10-02T02:50:00,mcc,50.52
2022-10-02T02:51:00,mcc,51.04
2022-10-02T02:52:00,mcc,51.80
2022-10-02T02:53:00,mcc,54.03
2022-10-02T02:54:00,mcc,49.09
2022-10-02T02:55:00,mcc,48.44
2022-10-02T02:56:00,mcc,49.63
2022-10-02T02:57:00,mcc,50.70
2022-10-02T02:58:00,mcc,51.22
2022-10-02T02:59:00,mcc,50.34
2022-10-02T03:00:00,mcc,51.56
2022-10-02T03:01:00,mcc,49.74
2022-10-02T03:02:00,mcc,48.46
2022-10-02T03:03:00,mcc,49.63
2022-10-02T03:04:00,mcc,48.90
2022-10-02T03:05:00,mcc,48.57
2022-10-02T03:06:00,mcc,48.99
2022-10-02T03:07:00,mcc,50.10
2022-10-02T03:08:00,mcc,49.08
2022-10-02T03:09:00,mcc,57.84
2022-10-02T03:10:00,mcc,49.60
2022-10-02T03:11:00,mcc,40.86
2022-10-02T03:12:00,mcc,42.12
2022-10-02T03:13:00,mcc,41.53
2022-10-02T03:14:00,mcc,41.15
2022-10-02T03:15:00,mcc,42.05
2022-10-02T03:16:00,mcc,44.88
2022-10-02T03:17:00,mcc,44.75
2022-10-02T03:18:00,mcc,43.52
2022-10-02T03:19:00,mcc,43.36
2022-10-02T03:20:00,mcc,43.45
2022-10-02T03:21:00,mcc,44.93
2022-10-02T03:22:00,mcc,42.33
2022-10-02T03:23:00,mcc,43.54
2022-10-02T03:24:00,mcc,45.55
2022-10-02T03:25:00,mcc,43.50
2022-10-02T03:26:00,mcc,45.00
2022-10-02T03:27:00,mcc,54.70
2022-10-02T03:28:00,mcc,53.27
2022-10-02T03:29:00,mcc,44.07
2022-10-02T03:30:00,mcc,50.67
2022-10-02T03:31:00,mcc,44.88
2022-10-02T03:32:00,mcc,44.27
2022-10-02T03:33:00,mcc,44.13
2022-10-02T03:34:00,mcc,45.90
2022-10-02T03:35:00,mcc,45.45
2022-10-02T03:36:00,mcc,44.49
2022-10-02T03:37:00,mcc,44.66
2022-10-02T03:38:00,mcc,43.19
2022-10-02T03:39:00,mcc,42.38
2022-10-02T03:40:00,mcc,45.47
2022-10-02T03:41:00,mcc,43.70
2022-10-02T03:42:00,mcc,41.40
2022-10-02T03:43:00,mcc,41.29
2022-10-02T03:44:00,mcc,39.45
2022-10-02T03:45:00,mcc,40.92
2022-10-02T03:46:00,mcc,43.72
2022-10-02T03:47:00,mcc,44.15
2022-10-02T03:48:00,mcc,53.71
2022-10-02T03:49:00,mcc,46.87
2022-10-02T03:50:00,mcc,42.82
2022-10-02T03:51:00,mcc,42.12
2022-10-02T03:52:00,mcc,41.18
2022-10-02T03:53:00,mcc,40.61
2022-10-02T03:54:00,mcc,39.86
2022-10-02T03:55:00,mcc,38.85
2022-10-02T03:56:00,mcc,36.28
2022-10-02T03:57:00,mcc,36.85
2022-10-02T03:58:00,mcc,37.25
2022-10-02T03:59:00,mcc,38.23
2022-10-02T04:00:00,mcc,39.79
2022-10-02T04:01:00,mcc,40.34
2022-10-02T04:02:00,mcc,39.23
2022-10-02T04:03:00,mcc,38.27
2022-10-02T04:04:00,mcc,39.03
2022-10-02T04:05:00,mcc,35.43
2022-10-02T04:06:00,mcc,37.14
2022-10-02T04:07:00,mcc,38.58
2022-10-02T04:08:00,mcc,47.10
2022-10-02T04:09:00,mcc,38.04
2022-10-02T04:10:00,mcc,40.23
2022-10-02T04:11:00,mcc,37.71
2022-10-02T04:12:00,mcc,36.35
2022-10-02T04:13:00,mcc,38.98
2022-10-02T04:14:00,mcc,37.56
2022-10-02T04:15:00,mcc,40.92
2022-10-02T04:16:00,mcc,42.87
2022-10-02T04:17:00,mcc,40.06
2022-10-02T04:18:00,mcc,39.10
2022-10-02T04:19:00,mcc,43.36
2022-10-02T04:20:00,mcc,40.19
2022-10-02T04:21:00,mcc,38.98
2022-10-02T04:22:00,mcc,40.89
2022-10-02T04:23:00,mcc,37.79
2022-10-02T04:24:00,mcc,40.26
2022-10-02T04:25:00,mcc,42.54
2022-10-02T04:26:00,mcc,39.58
2022-10-02T04:27:00,mcc,46.86
2022-10-02T04:28:00,mcc,39.40
2022-10-02T04:29:00,mcc,38.88
2022-10-02T04:30:00,mcc,38.26
2022-10-02T04:31:00,mcc,41.35
2022-10-02T04:32:00,mcc,39.65
2022-10-02T04:33:00,mcc,39.66
2022-10-02T04:34:00,mcc,39.77
2022-10-02T04:35:00,mcc,50.18
2022-10-02T04:36:00,mcc,37.20
2022-10-02T04:37:00,mcc,38.94
2022-10-02T04:38:00,mcc,38.85
2022-10-02T04:39:00,mcc,37.86
2022-10-02T04:40:00,mcc,40.27
2022-10-02T04:41:00,mcc,38.68
2022-10-02T04:42:00,mcc,49.69
2022-10-02T04:43:00,mcc,40.26
2022-10-02T04:44:00,mcc,40.10
2022-10-02T04:45:00,mcc,39.01
2022-10-02T04:46:00,mcc,47.85
2022-10-02T04:47:00,mcc,39.25
2022-10-02T04:48:00,mcc,37.96
2022-10-02T04:49:00,mcc,38.23
2022-10-02T04:50:00,mcc,38.43
2022-10-02T04:51:00,mcc,42.44
2022-10-02T04:52:00,mcc,40.29
2022-10-02T04:53:00,mcc,40.43
2022-10-02T04:54:00,mcc,42.08
2022-10-02T04:55:00,mcc,39.52
2022-10-02T04:56:00,mcc,39.25
2022-10-02T04:57:00,mcc,35.99
2022-10-02T04:58:00,mcc,35.10
2022-10-02T04:59:00,mcc,35.07
2022-10-02T05:00:00,mcc,34.81
2022-10-02T05:01:00,mcc,36.04
2022-10-02T05:02:00,mcc,36.76
2022-10-02T05:03:00,mcc,39.59
2022-10-02T05:04:00,mcc,40.25
2022-10-02T05:05:00,mcc,39.39
2022-10-02T05:06:00,mcc,40.13
2022-10-02T05:07:00,mcc,36.68
2022-10-02T05:08:00,mcc,36.31
2022-10-02T05:09:00,mcc,39.53
2022-10-02T05:10:00,mcc,38.87
2022-10-02T05:11:00,mcc,39.05
2022-10-02T05:12:00,mcc,41.00
2022-10-02T05:13:00,mcc,39.44
2022-10-02T05:14:00,mcc,41.15
2022-10-02T05:15:00,mcc,41.55
2022-10-02T05:16:00,mcc,40.04
2022-10-02T05:17:00,mcc,40.31
2022-10-02T05:18:00,mcc,42.70
2022-10-02T05:19:00,mcc,40.87
2022-10-02T05:20:00,mcc,41.11
2022-10-02T05:21:00,mcc,40.16
2022-10-02T05:22:00,mcc,39.39
2022-10-02T05:23:00,mcc,39.14
2022-10-02T05:24:00,mcc,39.38
2022-10-02T05:25:00,mcc,40.25
2022-10-02T05:26:00,mcc,49.49
2022-10-02T05:27:00,mcc,37.28
2022-10-02T05:28:00,mcc,37.17
2022-10-02T05:29:00,mcc,34.93
2022-10-02T05:30:00,mcc,35.75
2022-10-02T05:31:00,mcc,34.57
2022-10-02T05:32:00,mcc,36.40
2022-10-02T05:33:00,mcc,36.37
2022-10-02T05:34:00,mcc,36.12
2022-10-02T05:35:00,mcc,39.46
2022-10-02T05:36:00,mcc,37.00
2022-10-02T05:37:00,mcc,36.59
2022-10-02T05:38:00,mcc,38.60
2022-10-02T05:39:00,mcc,38.50
2022-10-02T05:40:00,mcc,38.67
2022-10-02T05:41:00,mcc,41.07
2022-10-02T05:42:00,mcc,38.51
2022-10-02T05:43:00,mcc,39.33
2022-10-02T05:44:00,mcc,51.88
2022-10-02T05:45:00,mcc,45.19
2022-10-02T05:46:00,mcc,40.01
2022-10-02T05:47:00,mcc,39.54
2022-10-02T05:48:00,mcc,40.52
2022-10-02T05:49:00,mcc,41.22
2022-10-02T05:50:00,mcc,41.30
2022-10-02T05:51:00,mcc,38.54
2022-10-02T05:52:00,mcc,42.42
2022-10-02T05:53:00,mcc,40.22
2022-10-02T05:54:00,mcc,38.66
2022-10-02T05:55:00,mcc,40.06
2022-10-02T05:56:00,mcc,36.82
2022-10-02T05:57:00,mcc,37.14
2022-10-02T05:58:00,mcc,40.27
2022-10-02T05:59:00,mcc,37.87
2022-10-02T06:00:00,mcc,40.69
2022-10-02T06:01:00,mcc,42.75
2022-10-02T06:02:00,mcc,42.77
2022-10-02T06:03:00,mcc,49.64
2022-10-02T06:04:00,mcc,42.39
2022-10-02T06:05:00,mcc,47.83
2022-10-02T06:06:00,mcc,40.34
2022-10-02T06:07:00,mcc,39.54
2022-10-02T06:08:00,mcc,39.69
2022-10-02T06:09:00,mcc,38.64
2022-10-02T06:10:00,mcc,41.17
2022-10-02T06:11:00,mcc,42.71
2022-10-02T06:12:00,mcc,42.35
2022-10-02T06:13:00,mcc,40.13
2022-10-02T06:14:00,mcc,40.58
2022-10-02T06:15:00,mcc,43.05
2022-10-02T06:16:00,mcc,39.65
2022-10-02T06:17:00,mcc,40.12
2022-10-02T06:18:00,mcc,41.18
2022-10-02T06:19:00,mcc,37.56
2022-10-02T06:20:00,mcc,39.24
2022-10-02T06:21:00,mcc,40.24
2022-10-02T06:22:00,mcc,39.37
2022-10-02T06:23:00,mcc,37.51
2022-10-02T06:24:00,mcc,48.09
2022-10-02T06:25:00,mcc,35.06
2022-10-02T06:26:00,mcc,45.72
2022-10-02T06:27:00,mcc,46.20
2022-10-02T06:28:00,mcc,49.06
2022-10-02T06:29:00,mcc,57.74
2022-10-02T06:30:00,mcc,52.57
2022-10-02T06:31:00,mcc,48.69
2022-10-02T06:32:00,mcc,48.81
2022-10-02T06:33:00,mcc,39.20
2022-10-02T06:34:00,mcc,37.94
2022-10-02T06:35:00,mcc,40.38
2022-10-02T06:36:00,mcc,39.07
2022-10-02T06:37:00,mcc,39.56
2022-10-02T06:38:00,mcc,39.51
2022-10-02T06:39:00,mcc,37.59
2022-10-02T06:40:00,mcc,39.09
2022-10-02T06:41:00,mcc,40.82
2022-10-02T06:42:00,mcc,40.08
2022-10-02T06:43:00,mcc,49.66
2022-10-02T06:44:00,mcc,43.72
2022-10-02T06:45:00,mcc,39.47
2022-10-02T06:46:00,mcc,40.77
2022-10-02T06:47:00,mcc,40.43
2022-10-02T06:48:00,mcc,37.64
2022-10-02T06:49:00,mcc,36.47
2022-10-02T06:50:00,mcc,50.86
2022-10-02T06:51:00,mcc,35.48
2022-10-02T06:52:00,mcc,34.57
2022-10-02T06:53:00,mcc,37.67
2022-10-02T06:54:00,mcc,35.56
2022-10-02T06:55:00,mcc,37.51
2022-10-02T06:56:00,mcc,36.53
2022-10-02T06:57:00,mcc,35.30
2022-10-02T06:58:00,mcc,36.24
2022-10-02T06:59:00,mcc,36.45
2022-10-02T07:00:00,mcc,35.81
2022-10-02T07:01:00,mcc,36.05
2022-10-02T07:02:00,mcc,35.16
2022-10-02T07:03:00,mcc,45.38
2022-10-02T07:04:00,mcc,35.86
2022-10-02T07:05:00,mcc,38.58
2022-10-02T07:06:00,mcc,37.80
2022-10-02T07:07:00,mcc,38.93
2022-10-02T07:08:00,mcc,36.11
2022-10-02T07:09:00,mcc,36.08
2022-10-02T07:10:00,mcc,39.74
2022-10-02T07:11:00,mcc,38.32
2022-10-02T07:12:00,mcc,40.34
2022-10-02T07:13:00,mcc,40.94
2022-10-02T07:14:00,mcc,39.72
2022-10-02T07:15:00,mcc,37.01
2022-10-02T07:16:00,mcc,39.20
2022-10-02T07:17:00,mcc,37.24
2022-10-02T07:18:00,mcc,36.55
2022-10-02T07:19:00,mcc,39.14
2022-10-02T07:20:00,mcc,38.05
2022-10-02T07:21:00,mcc,38.52
2022-10-02T07:22:00,mcc,44.66
2022-10-02T07:23:00,mcc,36.80
2022-10-02T07:24:00,mcc,38.18
2022-10-02T07:25:00,mcc,34.63
2022-10-02T07:26:00,mcc,36.24
2022-10-02T07:27:00,mcc,36.56
2022-10-02T07:28:00,mcc,35.33
2022-10-02T07:29:00,mcc,36.89
2022-10-02T07:30:00,mcc,37.98
2022-10-02T07:31:00,mcc,35.95
2022-10-02T07:32:00,mcc,34.28
2022-10-02T07:33:00,mcc,35.19
2022-10-02T07:34:00,mcc,33.08
2022-10-02T07:35:00,mcc,32.24
2022-10-02T07:36:00,mcc,34.59
2022-10-02T07:37:00,mcc,32.49
2022-10-02T07:38:00,mcc,35.17
2022-10-02T07:39:00,mcc,38.22
2022-10-02T07:40:00,mcc,36.85
2022-10-02T07:41:00,mcc,38.58
2022-10-02T07:42:00,mcc,46.03
2022-10-02T07:43:00,mcc,35.22
2022-10-02T07:44:00,mcc,36.08
2022-10-02T07:45:00,mcc,35.95
2022-10-02T07:46:00,mcc,38.27
2022-10-02T07:47:00,mcc,36.50
2022-10-02T07:48:00,mcc,37.48
2022-10-02T07:49:00,mcc,37.26
2022-10-02T07:50:00,mcc,40.33
2022-10-02T07:51:00,mcc,36.86
2022-10-02T07:52:00,mcc,37.16
2022-10-02T07:53:00,mcc,38.95
2022-10-02T07:54:00,mcc,36.04
2022-10-02T07:55:00,mcc,50.63
2022-10-02T07:56:00,mcc,39.86
2022-10-02T07:57:00,mcc,36.80
2022-10-02T07:58:00,mcc,36.53
2022-10-02T07:59:00,mcc,40.41
2022-10-02T08:00:00,mcc,37.99
2022-10-02T08:01:00,mcc,37.50
2022-10-02T08:02:00,mcc,47.75
2022-10-02T08:03:00,mcc,36.51
2022-10-02T08:04:00,mcc,34.65
2022-10-02T08:05:00,mcc,35.43
2022-10-02T08:06:00,mcc,35.04
2022-10-02T08:07:00,mcc,36.22
2022-10-02T08:08:00,mcc,35.67
2022-10-02T08:09:00,mcc,35.87
2022-10-02T08:10:00,mcc,37.41
2022-10-02T08:11:00,mcc,34.60
2022-10-02T08:12:00,mcc,36.10
2022-10-02T08:13:00,mcc,39.36
2022-10-02T08:14:00,mcc,37.71
2022-10-02T08:15:00,mcc,35.87
2022-10-02T08:16:00,mcc,36.55
2022-10-02T08:17:00,mcc,37.47
2022-10-02T08:18:00,mcc,38.38
2022-10-02T08:19:00,mcc,38.83
2022-10-02T08:20:00,mcc,38.13
2022-10-02T08:21:00,mcc,37.22
2022-10-02T08:22:00,mcc,39.07
2022-10-02T08:23:00,mcc,37.16
2022-10-02T08:24:00,mcc,40.01
2022-10-02T08:25:00,mcc,39.13
2022-10-02T08:26:00,mcc,38.25
2022-10-02T08:27:00,mcc,37.68
2022-10-02T08:28:00,mcc,40.14
2022-10-02T08:29:00,mcc,39.05
2022-10-02T08:30:00,mcc,37.80
2022-10-02T08:31:00,mcc,39.62
2022-10-02T08:32:00,mcc,36.04
2022-10-02T08:33:00,mcc,36.00
2022-10-02T08:34:00,mcc,36.55
2022-10-02T08:35:00,mcc,37.80
2022-10-02T08:36:00,mcc,37.55
2022-10-02T08:37:00,mcc,38.48
2022-10-02T08:38:00,mcc,36.00
2022-10-02T08:39:00,mcc,39.91
2022-10-02T08:40:00,mcc,37.35
2022-10-02T08:41:00,mcc,37.36
2022-10-02T08:42:00,mcc,40.77
2022-10-02T08:43:00,mcc,39.58
2022-10-02T08:44:00,mcc,35.80
2022-10-02T08:45:00,mcc,38.41
2022-10-02T08:46:00,mcc,35.99
2022-10-02T08:47:00,mcc,38.17
2022-10-02T08:48:00,mcc,42.81
2022-10-02T08:49:00,mcc,39.14
2022-10-02T08:50:00,mcc,36.71
2022-10-02T08:51:00,mcc,37.78
2022-10-02T08:52:00,mcc,34.12
2022-10-02T08:53:00,mcc,35.99
2022-10-02T08:54:00,mcc,37.68
2022-10-02T08:55:00,mcc,38.94
2022-10-02T08:56:00,mcc,38.01
2022-10-02T08:57:00,mcc,39.44
2022-10-02T08:58:00,mcc,38.10
2022-10-02T08:59:00,mcc,36.94
2022-10-02T09:00:00,mcc,38.12
2022-10-02T09:01:00,mcc,36.80
2022-10-02T09:02:00,mcc,37.69
2022-10-02T09:03:00,mcc,46.56
2022-10-02T09:04:00,mcc,45.72
2022-10-02T09:05:00,mcc,35.48
2022-10-02T09:06:00,mcc,34.63
2022-10-02T09:07:00,mcc,36.52
2022-10-02T09:08:00,mcc,39.13
2022-10-02T09:09:00,mcc,36.53
2022-10-02T09:10:00,mcc,35.75
2022-10-02T09:11:00,mcc,37.01
2022-10-02T09:12:00,mcc,35.16
2022-10-02T09:13:00,mcc,35.64
2022-10-02T09:14:00,mcc,36.43
2022-10-02T09:15:00,mcc,37.19
2022-10-02T09:16:00,mcc,36.23
2022-10-02T09:17:00,mcc,39.09
2022-10-02T09:18:00,mcc,37.46
2022-10-02T09:19:00,mcc,37.37
2022-10-02T09:20:00,mcc,39.31
2022-10-02T09:21:00,mcc,34.87
2022-10-02T09:22:00,mcc,33.37
2022-10-02T09:23:00,mcc,36.74
2022-10-02T09:24:00,mcc,35.65
2022-10-02T09:25:00,mcc,37.16
2022-10-02T09:26:00,mcc,38.26
2022-10-02T09:27:00,mcc,36.06
2022-10-02T09:28:00,mcc,37.27
2022-10-02T09:29:00,mcc,37.06
2022-10-02T09:30:00,mcc,34.83
2022-10-02T09:31:00,mcc,37.52
2022-10-02T09:32:00,mcc,37.09
2022-10-02T09:33:00,mcc,37.78
2022-10-02T09:34:00,mcc,39.26
2022-10-02T09:35:00,mcc,33.55
2022-10-02T09:36:00,mcc,34.96
2022-10-02T09:37:00,mcc,35.98
2022-10-02T09:38:00,mcc,35.74
2022-10-02T09:39:00,mcc,34.32
2022-10-02T09:40:00,mcc,37.16
2022-10-02T09:41:00,mcc,36.98
2022-10-02T09:42:00,mcc,35.48
2022-10-02T09:43:00,mcc,38.80
2022-10-02T09:44:00,mcc,36.55
2022-10-02T09:45:00,mcc,37.12
2022-10-02T09:46:00,mcc,39.19
2022-10-02T09:47:00,mcc,39.37
2022-10-02T09:48:00,mcc,41.58
2022-10-02T09:49:00,mcc,44.03
2022-10-02T09:50:00,mcc,40.79
2022-10-02T09:51:00,mcc,38.73
2022-10-02T09:52:00,mcc,38.25
2022-10-02T09:53:00,mcc,36.91
2022-10-02T09:54:00,mcc,36.23
2022-10-02T09:55:00,mcc,34.02
2022-10-02T09:56:00,mcc,37.23
2022-10-02T09:57:00,mcc,41.11
2022-10-02T09:58:00,mcc,36.69
2022-10-02T09:59:00,mcc,37.08
2022-10-02T10:00:00,mcc,39.64
2022-10-02T10:01:00,mcc,44.95
2022-10-02T10:02:00,mcc,36.61
2022-10-02T10:03:00,mcc,40.20
2022-10-02T10:04:00,mcc,39.82
2022-10-02T10:05:00,mcc,38.67
2022-10-02T10:06:00,mcc,39.53
2022-10-02T10:07:00,mcc,37.59
2022-10-02T10:08:00,mcc,49.44
2022-10-02T10:09:00,mcc,38.39
2022-10-02T10:10:00,mcc,37.15
2022-10-02T10:11:00,mcc,36.56
2022-10-02T10:12:00,mcc,38.13
2022-10-02T10:13:00,mcc,35.91
2022-10-02T10:14:00,mcc,36.45
2022-10-02T10:15:00,mcc,40.04
2022-10-02T10:16:00,mcc,39.29
2022-10-02T10:17:00,mcc,40.14
2022-10-02T10:18:00,mcc,40.34
2022-10-02T10:19:00,mcc,37.38
2022-10-02T10:20:00,mcc,38.18
2022-10-02T10:21:00,mcc,36.14
2022-10-02T10:22:00,mcc,35.53
2022-10-02T10:23:00,mcc,35.98
2022-10-02T10:24:00,mcc,33.77
2022-10-02T10:25:00,mcc,37.20
2022-10-02T10:26:00,mcc,39.19
2022-10-02T10:27:00,mcc,37.26
2022-10-02T10:28:00,mcc,40.17
2022-10-02T10:29:00,mcc,42.09
2022-10-02T10:30:00,mcc,38.64
2022-10-02T10:31:00,mcc,37.88
2022-10-02T10:32:00,mcc,40.71
2022-10-02T10:33:00,mcc,36.85
2022-10-02T10:34:00,mcc,34.76
2022-10-02T10:35:00,mcc,38.78
2022-10-02T10:36:00,mcc,36.04
2022-10-02T10:37:00,mcc,36.29
2022-10-02T10:38:00,mcc,38.55
2022-10-02T10:39:00,mcc,37.47
2022-10-02T10:40:00,mcc,53.59
2022-10-02T10:41:00,mcc,46.03
2022-10-02T10:42:00,mcc,44.66
2022-10-02T10:43:00,mcc,47.76
2022-10-02T10:44:00,mcc,38.66
2022-10-02T10:45:00,mcc,38.25
2022-10-02T10:46:00,mcc,40.72
2022-10-02T10:47:00,mcc,40.29
2022-10-02T10:48:00,mcc,41.27
2022-10-02T10:49:00,mcc,39.63
2022-10-02T10:50:00,mcc,39.45
2022-10-02T10:51:00,mcc,37.89
2022-10-02T10:52:00,mcc,41.42
2022-10-02T10:53:00,mcc,37.62
2022-10-02T10:54:00,mcc,35.98
2022-10-02T10:55:00,mcc,40.90
2022-10-02T10:56:00,mcc,37.25
2022-10-02T10:57:00,mcc,40.60
2022-10-02T10:58:00,mcc,43.37
2022-10-02T10:59:00,mcc,48.98
2022-10-02T11:00:00,mcc,38.90
2022-10-02T11:01:00,mcc,42.82
2022-10-02T11:02:00,mcc,41.53
2022-10-02T11:03:00,mcc,39.52
2022-10-02T11:04:00,mcc,40.05
2022-10-02T11:05:00,mcc,40.37
2022-10-02T11:06:00,mcc,40.16
2022-10-02T11:07:00,mcc,41.54
2022-10-02T11:08:00,mcc,42.63
2022-10-02T11:09:00,mcc,45.80
2022-10-02T11:10:00,mcc,44.84
2022-10-02T11:11:00,mcc,42.04
2022-10-02T11:12:00,mcc,42.29
2022-10-02T11:13:00,mcc,43.12
2022-10-02T11:14:00,mcc,40.34
2022-10-02T11:15:00,mcc,40.14
2022-10-02T11:16:00,mcc,41.89
2022-10-02T11:17:00,mcc,40.65
2022-10-02T11:18:00,mcc,42.02
2022-10-02T11:19:00,mcc,50.58
2022-10-02T11:20:00,mcc,54.53
2022-10-02T11:21:00,mcc,53.46
2022-10-02T11:22:00,mcc,41.61
2022-10-02T11:23:00,mcc,45.05
2022-10-02T11:24:00,mcc,41.44
2022-10-02T11:25:00,mcc,42.71
2022-10-02T11:26:00,mcc,42.34
2022-10-02T11:27:00,mcc,43.93
2022-10-02T11:28:00,mcc,49.85
2022-10-02T11:29:00,mcc,51.51
2022-10-02T11:30:00,mcc,49.73
2022-10-02T11:31:00,mcc,48.79
2022-10-02T11:32:00,mcc,48.25
2022-10-02T11:33:00,mcc,40.92
2022-10-02T11:34:00,mcc,42.62
2022-10-02T11:35:00,mcc,40.13
2022-10-02T11:36:00,mcc,41.39
2022-10-02T11:37:00,mcc,39.84
2022-10-02T11:38:00,mcc,48.92
2022-10-02T11:39:00,mcc,43.38
2022-10-02T11:40:00,mcc,42.28
2022-10-02T11:41:00,mcc,44.75
2022-10-02T11:42:00,mcc,42.24
2022-10-02T11:43:00,mcc,43.68
2022-10-02T11:44:00,mcc,44.92
2022-10-02T11:45:00,mcc,46.18
2022-10-02T11:46:00,mcc,50.73
2022-10-02T11:47:00,mcc,47.44
2022-10-02T11:48:00,mcc,48.94
2022-10-02T11:49:00,mcc,46.39
2022-10-02T11:50:00,mcc,45.42
2022-10-02T11:51:00,mcc,45.29
2022-10-02T11:52:00,mcc,46.39
2022-10-02T11:53:00,mcc,47.21
2022-10-02T11:54:00,mcc,46.38
2022-10-02T11:55:00,mcc,43.66
2022-10-02T11:56:00,mcc,42.17
2022-10-02T11:57:00,mcc,43.20
2022-10-02T11:58:00,mcc,41.60
2022-10-02T11:59:00,mcc,45.67
2022-10-02T12:00:00,mcc,43.26
2022-10-02T12:01:00,mcc,41.83
2022-10-02T12:02:00,mcc,43.11
2022-10-02T12:03:00,mcc,46.01
2022-10-02T12:04:00,mcc,45.75
2022-10-02T12:05:00,mcc,48.34
2022-10-02T12:06:00,mcc,45.69
2022-10-02T12:07:00,mcc,47.73
2022-10-02T12:08:00,mcc,44.64
2022-10-02T12:09:00,mcc,45.30
2022-10-02T12:10:00,mcc,43.95
2022-10-02T12:11:00,mcc,44.25
2022-10-02T12:12:00,mcc,43.24
2022-10-02T12:13:00,mcc,42.51
2022-10-02T12:14:00,mcc,46.36
2022-10-02T12:15:00,mcc,45.89
2022-10-02T12:16:00,mcc,45.84
2022-10-02T12:17:00,mcc,53.63
2022-10-02T12:18:00,mcc,46.14
2022-10-02T12:19:00,mcc,45.67
2022-10-02T12:20:00,mcc,46.69
2022-10-02T12:21:00,mcc,48.10
2022-10-02T12:22:00,mcc,44.42
2022-10-02T12:23:00,mcc,45.58
2022-10-02T12:24:00,mcc,55.54
2022-10-02T12:25:00,mcc,45.37
2022-10-02T12:26:00,mcc,44.71
2022-10-02T12:27:00,mcc,42.66
2022-10-02T12:28:00,mcc,45.73
2022-10-02T12:29:00,mcc,43.52
2022-10-02T12:30:00,mcc,45.98
2022-10-02T12:31:00,mcc,46.55
2022-10-02T12:32:00,mcc,55.34
2022-10-02T12:33:00,mcc,44.42
2022-10-02T12:34:00,mcc,46.45
2022-10-02T12:35:00,mcc,47.15
2022-10-02T12:36:00,mcc,48.99
2022-10-02T12:37:00,mcc,55.62
2022-10-02T12:38:00,mcc,47.43
2022-10-02T12:39:00,mcc,46.68
2022-10-02T12:40:00,mcc,49.03
2022-10-02T12:41:00,mcc,45.96
2022-10-02T12:42:00,mcc,46.32
2022-10-02T12:43:00,mcc,46.33
2022-10-02T12:44:00,mcc,46.06
2022-10-02T12:45:00,mcc,47.02
2022-10-02T12:46:00,mcc,46.25
2022-10-02T12:47:00,mcc,45.68
2022-10-02T12:48:00,mcc,47.05
2022-10-02T12:49:00,mcc,48.57
2022-10-02T12:50:00,mcc,44.66
2022-10-02T12:51:00,mcc,45.64
2022-10-02T12:52:00,mcc,46.18
2022-10-02T12:53:00,mcc,46.09
2022-10-02T12:54:00,mcc,44.73
2022-10-02T12:55:00,mcc,42.38
2022-10-02T12:56:00,mcc,44.12
2022-10-02T12:57:00,mcc,44.32
2022-10-02T12:58:00,mcc,42.94
2022-10-02T12:59:00,mcc,45.10
2022-10-02T13:00:00,mcc,42.88
2022-10-02T13:01:00,mcc,45.09
2022-10-02T13:02:00,mcc,42.12
2022-10-02T13:03:00,mcc,44.43
2022-10-02T13:04:00,mcc,46.09
2022-10-02T13:05:00,mcc,45.59
2022-10-02T13:06:00,mcc,48.39
2022-10-02T13:07:00,mcc,48.24
2022-10-02T13:08:00,mcc,50.07
2022-10-02T13:09:00,mcc,47.06
2022-10-02T13:10:00,mcc,47.73
2022-10-02T13:11:00,mcc,45.56
2022-10-02T13:12:00,mcc,47.98
2022-10-02T13:13:00,mcc,46.22
2022-10-02T13:14:00,mcc,48.48
2022-10-02T13:15:00,mcc,45.36
2022-10-02T13:16:00,mcc,43.95
2022-10-02T13:17:00,mcc,44.01
2022-10-02T13:18:00,mcc,43.54